Weather History for Ely, MN

Change the Weather History Date:

Sunday, October 26, 2014

  Actual Average Record
Temperature  
Mean Temperature 42 °F -  
Max Temperature 57 °F 44 °F 125 °F (1998)
Min Temperature 26 °F 30 °F 14 °F (1997)
Degree Days  
Heating Degree Days 24    
Moisture  
Dew Point 27 °F    
Average Humidity 58    
Maximum Humidity 93    
Minimum Humidity 25    
Precipitation  
Precipitation 0.00 in - - ()
Sea Level Pressure  
Sea Level Pressure 29.86 in    
Wind  
Wind Speed 3 mph (SSE)    
Max Wind Speed 17 mph    
Max Gust Speed 21 mph    
Visibility 10 miles    
Events Thunderstorm    
Averages and records for this station are not official NWS values.
T = Trace of Precipitation, MM = Missing Value Source: NWS Daily Summary

Daily Weather History Graph

Daily Weather History Graph

Search for Another Location

Airport:

Trip Planner

Search our weather history database for the weather conditions in past years. The results will help you decide how hot, cold, wet, or windy it might be!

Date:

Astronomy

Oct. 26, 2014 Rise Set
Actual Time 7:42 AM CDT 5:59 PM CDT
Civil Twilight 7:10 AM CDT 6:30 PM CDT
Nautical Twilight 6:34 AM CDT 7:07 PM CDT
Astronomical Twilight 5:58 AM CDT 7:42 PM CDT
Moon 10:29 AM CDT (10/26) 8:02 PM CDT (10/26)
Length of Visible Light 11h 20m
Length of Day
10h 16m
Waxing Crescent, 8% of the Moon is Illuminated
Oct 26
Waxing Crescent
Oct 30
First Quarter
Nov 6
Full
Nov 14
Last Quarter
Nov 22
New

Hourly Weather History & Observations

Time (CDT) Temp. Windchill Dew Point Humidity Pressure Visibility Wind Dir Wind Speed Gust Speed Precip Events Conditions
12:13 AM 37.4 °F 33.8 °F 26.6 °F 65% 29.95 in 10.0 mi West 4.6 mph - N/A   Clear
12:32 AM 37.4 °F 34.9 °F 26.6 °F 65% 29.94 in 10.0 mi WSW 3.5 mph - N/A   Clear
12:53 AM 35.6 °F 31.7 °F 26.6 °F 70% 29.94 in 10.0 mi West 4.6 mph - N/A   Clear
1:13 AM 35.6 °F 32.8 °F 26.6 °F 70% 29.94 in 10.0 mi West 3.5 mph - N/A   Clear
1:33 AM 33.8 °F 29.6 °F 26.6 °F 75% 29.94 in 10.0 mi West 4.6 mph - N/A   Clear
1:53 AM 35.6 °F - 26.6 °F 70% 29.94 in 10.0 mi Calm Calm - N/A   Clear
2:13 AM 33.8 °F 30.8 °F 26.6 °F 75% 29.94 in 10.0 mi West 3.5 mph - N/A   Clear
2:33 AM 33.8 °F 30.8 °F 26.6 °F 75% 29.94 in 10.0 mi West 3.5 mph - N/A   Clear
2:53 AM 33.8 °F 29.6 °F 28.4 °F 81% 29.95 in 10.0 mi West 4.6 mph - N/A   Clear
3:13 AM 33.8 °F 30.8 °F 28.4 °F 81% 29.95 in 10.0 mi West 3.5 mph - N/A   Clear
3:33 AM 33.8 °F 30.8 °F 26.6 °F 75% 29.95 in 10.0 mi West 3.5 mph - N/A   Clear
3:53 AM 33.8 °F 30.8 °F 26.6 °F 75% 29.95 in 10.0 mi WSW 3.5 mph - N/A   Clear
4:13 AM 33.8 °F - 26.6 °F 75% 29.95 in 10.0 mi Calm Calm - N/A   Clear
4:33 AM 32.0 °F - 26.6 °F 80% 29.95 in 10.0 mi Calm Calm - N/A   Clear
4:53 AM 30.2 °F - 26.6 °F 86% 29.95 in 10.0 mi Calm Calm - N/A   Clear
5:13 AM 28.4 °F - 24.8 °F 86% 29.95 in 10.0 mi Calm Calm - N/A   Clear
5:33 AM 30.2 °F - 26.6 °F 86% 29.96 in 10.0 mi Calm Calm - N/A   Clear
5:53 AM 28.4 °F - 26.6 °F 93% 29.95 in 10.0 mi Calm Calm - N/A   Clear
6:13 AM 26.6 °F - 24.8 °F 93% 29.95 in 10.0 mi Calm Calm - N/A   Clear
6:31 AM 28.4 °F - 24.8 °F 86% 29.95 in 10.0 mi Calm Calm - N/A   Clear
6:53 AM 28.4 °F - 24.8 °F 86% 29.94 in 10.0 mi Calm Calm - N/A   Clear
7:13 AM 26.6 °F - 24.8 °F 93% 29.94 in 10.0 mi Calm Calm - N/A   Clear
7:33 AM 26.6 °F - 24.8 °F 93% 29.94 in 10.0 mi Calm Calm - N/A   Clear
7:52 AM 26.6 °F - 24.8 °F 93% 29.95 in 10.0 mi Calm Calm - N/A   Clear
8:13 AM 28.4 °F - 24.8 °F 86% 29.95 in 10.0 mi Calm Calm - N/A   Clear
8:33 AM 28.4 °F - 24.8 °F 86% 29.95 in 10.0 mi Calm Calm - N/A   Clear
8:52 AM 30.2 °F - 26.6 °F 86% 29.94 in 10.0 mi Calm Calm - N/A   Clear
9:13 AM 33.8 °F - 28.4 °F 81% 29.95 in 10.0 mi Calm Calm - N/A   Clear
9:33 AM 35.6 °F - 28.4 °F 75% 29.95 in 10.0 mi Calm Calm - N/A   Clear
9:52 AM 37.4 °F - 28.4 °F 70% 29.94 in 10.0 mi Calm Calm - N/A   Clear
10:13 AM 39.2 °F - 28.4 °F 65% 29.94 in 10.0 mi Calm Calm - N/A   Clear
10:33 AM 42.8 °F - 30.2 °F 61% 29.93 in 10.0 mi Calm Calm - N/A   Clear
10:53 AM 44.6 °F - 30.2 °F 57% 29.92 in 10.0 mi Calm Calm - N/A   Clear
11:12 AM 46.4 °F - 30.2 °F 53% 29.92 in 10.0 mi Calm Calm - N/A   Clear
11:33 AM 48.2 °F - 28.4 °F 46% 29.92 in 10.0 mi Calm Calm - N/A   Clear
11:53 AM 46.4 °F - 28.4 °F 50% 29.92 in 10.0 mi Calm Calm - N/A   Clear
12:12 PM 48.2 °F - 28.4 °F 46% 29.92 in 10.0 mi Calm Calm - N/A   Clear
12:33 PM 50.0 °F - 26.6 °F 40% 29.90 in 10.0 mi Calm Calm - N/A   Clear
12:53 PM 51.8 °F - 24.8 °F 35% 29.89 in 10.0 mi Calm Calm - N/A   Clear
1:13 PM 53.6 °F - 26.6 °F 35% 29.88 in 10.0 mi WNW 3.5 mph - N/A   Clear
1:32 PM 53.6 °F - 24.8 °F 33% 29.87 in 10.0 mi Calm Calm - N/A   Clear
1:53 PM 55.4 °F - 24.8 °F 31% 29.86 in 10.0 mi West 3.5 mph - N/A   Clear
2:13 PM 55.4 °F - 24.8 °F 31% 29.84 in 10.0 mi Calm Calm - N/A   Clear
2:32 PM 55.4 °F - 24.8 °F 31% 29.83 in 10.0 mi South 6.9 mph - N/A   Clear
2:53 PM 55.4 °F - 24.8 °F 31% 29.82 in 10.0 mi ESE 4.6 mph - N/A   Clear
3:13 PM 55.4 °F - 23.0 °F 29% 29.82 in 10.0 mi East 5.8 mph - N/A   Clear
3:32 PM 55.4 °F - 23.0 °F 29% 29.81 in 10.0 mi East 4.6 mph - N/A   Clear
3:53 PM 57.2 °F - 21.2 °F 25% 29.80 in 10.0 mi SE 6.9 mph - N/A   Clear
4:13 PM 57.2 °F - 21.2 °F 25% 29.80 in 10.0 mi ESE 3.5 mph - N/A   Clear
4:32 PM 57.2 °F - 21.2 °F 25% 29.79 in 10.0 mi East 5.8 mph - N/A   Clear
4:53 PM 57.2 °F - 23.0 °F 27% 29.78 in 10.0 mi SE 5.8 mph - N/A   Clear
5:13 PM 57.2 °F - 24.8 °F 29% 29.77 in 10.0 mi ESE 4.6 mph - N/A   Clear
5:32 PM 55.4 °F - 23.0 °F 29% 29.77 in 10.0 mi East 3.5 mph - N/A   Clear
5:53 PM 53.6 °F - 28.4 °F 38% 29.77 in 10.0 mi East 4.6 mph - N/A   Clear
6:13 PM 51.8 °F - 28.4 °F 41% 29.75 in 10.0 mi East 4.6 mph - N/A   Clear
6:33 PM 51.8 °F - 28.4 °F 41% 29.75 in 10.0 mi SE 11.5 mph - N/A   Clear
6:53 PM 50.0 °F - 28.4 °F 43% 29.75 in 10.0 mi SE 8.1 mph - N/A   Clear
7:12 PM 50.0 °F - 28.4 °F 43% 29.74 in 10.0 mi SE 6.9 mph - N/A   Clear
7:33 PM 48.2 °F - 26.6 °F 43% 29.74 in 10.0 mi ESE 5.8 mph - N/A   Clear
7:53 PM 46.4 °F 42.9 °F 26.6 °F 46% 29.74 in 10.0 mi SE 6.9 mph - N/A   Clear
8:12 PM 46.4 °F 42.9 °F 26.6 °F 46% 29.74 in 10.0 mi SE 6.9 mph - N/A   Clear
8:33 PM 46.4 °F 42.4 °F 26.6 °F 46% 29.74 in 10.0 mi SE 8.1 mph - N/A   Clear
8:53 PM 46.4 °F 41.5 °F 26.6 °F 46% 29.72 in 10.0 mi ESE 10.4 mph - N/A   Scattered Clouds
9:12 PM 46.4 °F 41.5 °F 28.4 °F 50% 29.71 in 10.0 mi ESE 10.4 mph - N/A   Mostly Cloudy
9:33 PM 46.4 °F 40.7 °F 28.4 °F 50% 29.71 in 10.0 mi ESE 12.7 mph - N/A   Mostly Cloudy
9:53 PM 46.4 °F 41.9 °F 28.4 °F 50% 29.70 in 10.0 mi SE 9.2 mph - N/A Thunderstorm Mostly Cloudy
10:13 PM 46.4 °F 41.1 °F 28.4 °F 50% 29.70 in 10.0 mi SE 11.5 mph 16.1 mph N/A Thunderstorm Overcast
10:33 PM 46.4 °F 42.9 °F 28.4 °F 50% 29.70 in 10.0 mi SSE 6.9 mph 10.4 mph N/A Thunderstorm Overcast
10:53 PM 46.4 °F 41.1 °F 28.4 °F 50% 29.70 in 10.0 mi SSE 11.5 mph 18.4 mph N/A   Overcast
11:12 PM 44.6 °F 38.1 °F 30.2 °F 57% 29.70 in 10.0 mi SE 13.8 mph 17.3 mph N/A   Overcast
11:33 PM 44.6 °F 37.2 °F 32.0 °F 61% 29.69 in 10.0 mi SE 17.3 mph 20.7 mph N/A   Overcast
11:52 PM 44.6 °F 39.2 °F 33.8 °F 66% 29.70 in 10.0 mi SE 10.4 mph - N/A   Overcast